AFR72QT LFPO-LFKB

Flight info

Callsign AFR72QT
Flight time 1h 21m
Altitude 35000
Route LATRA DCT LAMUT DCT UTUVA DCT TITVA DCT NOQAS DCT OTROT DCT RETNO DCT KOLON DCT NARTI UP991 NIRDO
Aircraft A320/M-SDE3FGHIRWY/LB1

Departure

Time 2026-04-24 20:58
Airport Paris-Orly Airport (LFPO)

Arrival

Time 2026-04-24 22:20
Airport Bastia-Poretta International airport (LFKB)
Time Latitude Longitude Altitude Speed Heading
2026-04-24 20:30 48.72582 2.35879 293 ft 0 kts 26°
2026-04-24 20:47 48.72581 2.35879 276 ft 0 kts 26°
2026-04-24 20:49 48.72564 2.35865 307 ft 4 kts 26°
2026-04-24 20:50 48.72540 2.35847 309 ft 4 kts 26°
2026-04-24 20:50 48.72516 2.35829 308 ft 3 kts 26°
2026-04-24 20:50 48.72497 2.35816 307 ft 4 kts
2026-04-24 20:50 48.72479 2.35819 307 ft 4 kts 287°
2026-04-24 20:51 48.72475 2.35852 307 ft 1 kts 276°
2026-04-24 20:51 48.72475 2.35853 307 ft 0 kts 276°
2026-04-24 20:54 48.72476 2.35843 308 ft 4 kts 276°
2026-04-24 20:54 48.72477 2.35756 306 ft 12 kts 265°
2026-04-24 20:54 48.72454 2.35629 305 ft 0 kts 251°
2026-04-24 20:55 48.72447 2.35617 304 ft 4 kts 225°
2026-04-24 20:55 48.72409 2.35620 303 ft 8 kts 166°
2026-04-24 20:55 48.72337 2.35639 302 ft 13 kts 188°
2026-04-24 20:55 48.72242 2.35601 302 ft 14 kts 182°
2026-04-24 20:56 48.72156 2.35630 302 ft 12 kts 165°
2026-04-24 20:56 48.72084 2.35669 305 ft 9 kts 150°
2026-04-24 20:56 48.72043 2.35721 305 ft 7 kts 129°
2026-04-24 20:56 48.72019 2.35776 303 ft 6 kts 120°
2026-04-24 20:57 48.71990 2.35850 308 ft 10 kts 123°
2026-04-24 20:57 48.71959 2.35925 305 ft 7 kts 106°
2026-04-24 20:57 48.71966 2.35993 303 ft 9 kts 76°
2026-04-24 20:57 48.72032 2.36347 307 ft 70 kts 74°
2026-04-24 20:58 48.72222 2.37380 303 ft 129 kts 74°
2026-04-24 20:58 48.72490 2.38883 371 ft 167 kts 72°
2026-04-24 20:58 48.72791 2.40550 1050 ft 162 kts 72°
2026-04-24 20:58 48.73099 2.42200 1799 ft 163 kts 74°
2026-04-24 20:59 48.73418 2.43836 2504 ft 162 kts 74°
2026-04-24 20:59 48.73743 2.45467 3139 ft 161 kts 76°
2026-04-24 20:59 48.74031 2.47116 3649 ft 167 kts 82°
2026-04-24 20:59 48.74156 2.48978 3920 ft 189 kts 88°
2026-04-24 21:00 48.74223 2.51082 4148 ft 211 kts 88°
2026-04-24 21:00 48.74263 2.52608 4315 ft 227 kts 88°
2026-04-24 21:00 48.74325 2.55119 4667 ft 251 kts 91°
2026-04-24 21:00 48.73893 2.57712 5260 ft 262 kts 123°
2026-04-24 21:01 48.72609 2.59699 5995 ft 270 kts 145°
2026-04-24 21:01 48.70843 2.60770 6751 ft 280 kts 172°
2026-04-24 21:01 48.68898 2.60512 7492 ft 286 kts 197°
2026-04-24 21:01 48.66991 2.59601 8323 ft 289 kts 198°
2026-04-24 21:02 48.65067 2.58651 9150 ft 292 kts 199°
2026-04-24 21:02 48.63134 2.57688 9978 ft 295 kts 199°
2026-04-24 21:02 48.61151 2.56702 10561 ft 308 kts 198°
2026-04-24 21:02 48.59045 2.55659 10794 ft 331 kts 198°
2026-04-24 21:03 48.56800 2.54554 11234 ft 344 kts 198°
2026-04-24 21:03 48.54506 2.53431 11904 ft 349 kts 198°
2026-04-24 21:03 48.52183 2.52299 12614 ft 353 kts 198°
2026-04-24 21:03 48.49824 2.51153 13318 ft 357 kts 198°
2026-04-24 21:04 48.47444 2.49996 13998 ft 361 kts 198°
2026-04-24 21:04 48.45046 2.48827 14596 ft 365 kts 198°
2026-04-24 21:04 48.42612 2.47642 15214 ft 368 kts 198°
2026-04-24 21:04 48.40163 2.46454 15834 ft 372 kts 197°
2026-04-24 21:05 48.37687 2.45259 16433 ft 376 kts 197°
2026-04-24 21:05 48.35186 2.44052 17029 ft 379 kts 197°
2026-04-24 21:05 48.32663 2.42843 17628 ft 382 kts 195°
2026-04-24 21:05 48.30040 2.42092 18202 ft 385 kts 184°
2026-04-24 21:06 48.27357 2.42136 18719 ft 388 kts 172°
2026-04-24 21:06 48.24722 2.42975 19221 ft 389 kts 160°
2026-04-24 21:06 48.22163 2.44343 19710 ft 392 kts 159°
2026-04-24 21:06 48.19589 2.45726 20223 ft 395 kts 159°
2026-04-24 21:07 48.16979 2.47108 20667 ft 400 kts 159°
2026-04-24 21:07 48.14337 2.48498 21126 ft 403 kts 159°
2026-04-24 21:07 48.11679 2.49894 21586 ft 407 kts 159°
2026-04-24 21:07 48.09000 2.51305 22043 ft 410 kts 159°
2026-04-24 21:08 48.06293 2.52715 22499 ft 414 kts 160°
2026-04-24 21:08 48.03550 2.54091 22933 ft 417 kts 160°
2026-04-24 21:08 48.00778 2.55449 23419 ft 420 kts 160°
2026-04-24 21:08 47.97994 2.56800 23870 ft 423 kts 160°
2026-04-24 21:09 47.95173 2.58163 24169 ft 428 kts 160°
2026-04-24 21:09 47.92331 2.59541 24505 ft 431 kts 160°
2026-04-24 21:09 47.89468 2.60939 24851 ft 434 kts 160°
2026-04-24 21:09 47.86593 2.62354 25202 ft 437 kts 160°
2026-04-24 21:10 47.83702 2.63782 25556 ft 440 kts 160°
2026-04-24 21:10 47.80787 2.65218 25880 ft 442 kts 160°
2026-04-24 21:10 47.77857 2.66652 26221 ft 445 kts 160°
2026-04-24 21:10 47.74901 2.68096 26542 ft 449 kts 161°
2026-04-24 21:11 47.71923 2.69545 26842 ft 452 kts 161°
2026-04-24 21:11 47.68922 2.71001 27168 ft 455 kts 161°
2026-04-24 21:11 47.65899 2.72468 27496 ft 458 kts 161°
2026-04-24 21:11 47.62865 2.73941 27818 ft 460 kts 161°
2026-04-24 21:12 47.59818 2.75421 28144 ft 463 kts 161°
2026-04-24 21:12 47.56749 2.76909 28466 ft 465 kts 161°
2026-04-24 21:12 47.53667 2.78403 28756 ft 468 kts 161°
2026-04-24 21:12 47.50556 2.79908 29065 ft 471 kts 161°
2026-04-24 21:13 47.47426 2.81415 29357 ft 474 kts 161°
2026-04-24 21:13 47.44283 2.82927 29661 ft 476 kts 161°
2026-04-24 21:13 47.41129 2.84444 29953 ft 478 kts 161°
2026-04-24 21:13 47.37964 2.85967 30236 ft 480 kts 162°
2026-04-24 21:14 47.34773 2.87505 30461 ft 482 kts 162°
2026-04-24 21:14 47.31591 2.89040 30745 ft 482 kts 163°
2026-04-24 21:14 47.28358 2.90594 31079 ft 482 kts 164°
2026-04-24 21:14 47.25216 2.92099 31478 ft 479 kts 164°
2026-04-24 21:15 47.22057 2.93603 31914 ft 476 kts 164°
2026-04-24 21:15 47.18872 2.95118 32294 ft 474 kts 164°
2026-04-24 21:15 47.15744 2.96606 32635 ft 473 kts 165°
2026-04-24 21:15 47.12617 2.98092 32948 ft 472 kts 165°
2026-04-24 21:16 47.09524 2.99521 33281 ft 471 kts 167°
2026-04-24 21:16 47.06353 3.00882 33618 ft 469 kts 168°
2026-04-24 21:16 47.03206 3.02158 33969 ft 468 kts 168°
2026-04-24 21:16 47.00076 3.03394 34269 ft 467 kts 169°
2026-04-24 21:17 46.96943 3.04630 34566 ft 466 kts 168°
2026-04-24 21:17 46.93810 3.05879 34844 ft 465 kts 168°
2026-04-24 21:17 46.90702 3.07136 35059 ft 464 kts 168°
2026-04-24 21:17 46.87600 3.08408 35119 ft 460 kts 168°
2026-04-24 21:18 46.81461 3.10937 35124 ft 457 kts 168°
2026-04-24 21:18 46.75352 3.13446 35124 ft 456 kts 168°
2026-04-24 21:19 46.69235 3.15934 35126 ft 456 kts 168°
2026-04-24 21:19 46.63118 3.18408 35121 ft 456 kts 168°
2026-04-24 21:20 46.53945 3.22123 35117 ft 456 kts 168°
2026-04-24 21:21 46.47839 3.24589 35120 ft 455 kts 168°
2026-04-24 21:21 46.41737 3.27045 35124 ft 454 kts 168°
2026-04-24 21:22 46.35653 3.29491 35126 ft 454 kts 168°
2026-04-24 21:22 46.29573 3.31927 35107 ft 453 kts 168°
2026-04-24 21:23 46.23503 3.34360 35116 ft 453 kts 168°
2026-04-24 21:23 46.17419 3.36785 35115 ft 453 kts 168°
2026-04-24 21:24 46.11351 3.39187 35097 ft 453 kts 168°
2026-04-24 21:24 46.05277 3.41603 35113 ft 453 kts 168°
2026-04-24 21:25 45.99209 3.44022 35119 ft 453 kts 168°
2026-04-24 21:25 45.93135 3.46427 35118 ft 453 kts 168°
2026-04-24 21:26 45.87133 3.49003 35128 ft 455 kts 160°
2026-04-24 21:26 45.81629 3.53542 35126 ft 459 kts 149°
2026-04-24 21:27 45.76299 3.58580 35122 ft 459 kts 149°
2026-04-24 21:27 45.70959 3.63583 35113 ft 459 kts 149°
2026-04-24 21:28 45.65622 3.68576 35139 ft 458 kts 149°
2026-04-24 21:28 45.60303 3.73556 35150 ft 457 kts 149°
2026-04-24 21:29 45.54978 3.78537 35148 ft 457 kts 149°
2026-04-24 21:29 45.49662 3.83494 35149 ft 457 kts 148°
2026-04-24 21:30 45.44354 3.88425 35142 ft 454 kts 149°
2026-04-24 21:30 45.39121 3.93281 35167 ft 452 kts 147°
2026-04-24 21:31 45.34516 3.99424 35168 ft 456 kts 128°
2026-04-24 21:31 45.30831 4.06678 35165 ft 456 kts 127°
2026-04-24 21:32 45.27078 4.14020 35166 ft 455 kts 127°
2026-04-24 21:32 45.23351 4.21278 35161 ft 455 kts 127°
2026-04-24 21:33 45.19628 4.28529 35160 ft 455 kts 127°
2026-04-24 21:33 45.15924 4.35729 35154 ft 454 kts 127°
2026-04-24 21:34 45.12175 4.42978 35160 ft 454 kts 127°
2026-04-24 21:34 45.08268 4.49984 35148 ft 453 kts 131°
2026-04-24 21:35 45.04096 4.56661 35156 ft 453 kts 133°
2026-04-24 21:35 44.99883 4.63291 35159 ft 452 kts 132°
2026-04-24 21:36 44.95745 4.69956 35158 ft 451 kts 131°
2026-04-24 21:36 44.91654 4.76649 35151 ft 450 kts 131°
2026-04-24 21:37 44.87576 4.83299 35150 ft 449 kts 131°
2026-04-24 21:37 44.83476 4.89941 35147 ft 449 kts 131°
2026-04-24 21:38 44.79367 4.96540 35146 ft 448 kts 131°
2026-04-24 21:38 44.75263 5.03126 35147 ft 447 kts 131°
2026-04-24 21:39 44.71173 5.09689 35145 ft 446 kts 131°
2026-04-24 21:39 44.67106 5.16209 35141 ft 446 kts 131°
2026-04-24 21:40 44.63008 5.22746 35142 ft 446 kts 131°
2026-04-24 21:40 44.58878 5.29319 35143 ft 446 kts 131°
2026-04-24 21:41 44.55470 5.34736 35150 ft 446 kts 132°
2026-04-24 21:41 44.50706 5.42299 35154 ft 445 kts 132°
2026-04-24 21:42 44.46613 5.48767 35153 ft 444 kts 132°
2026-04-24 21:42 44.43179 5.54185 35153 ft 443 kts 132°
2026-04-24 21:43 44.39095 5.60624 35153 ft 443 kts 132°
2026-04-24 21:43 44.35464 5.67576 35147 ft 443 kts 125°
2026-04-24 21:44 44.32009 5.74712 35146 ft 443 kts 125°
2026-04-24 21:44 44.28560 5.81813 35146 ft 442 kts 125°
2026-04-24 21:45 44.25120 5.88880 35145 ft 441 kts 125°
2026-04-24 21:45 44.21666 5.95948 35139 ft 441 kts 124°
2026-04-24 21:46 44.18227 6.02955 35141 ft 441 kts 125°
2026-04-24 21:46 44.14745 6.10042 35135 ft 440 kts 125°
2026-04-24 21:47 44.11326 6.16990 35139 ft 440 kts 125°
2026-04-24 21:47 44.07878 6.23969 35136 ft 439 kts 125°
2026-04-24 21:48 44.04437 6.30924 35132 ft 439 kts 124°
2026-04-24 21:48 44.00999 6.37865 35134 ft 439 kts 124°
2026-04-24 21:49 43.97537 6.44836 35124 ft 438 kts 125°
2026-04-24 21:49 43.94068 6.51790 35128 ft 438 kts 124°
2026-04-24 21:50 43.90603 6.58728 35120 ft 437 kts 124°
2026-04-24 21:50 43.87145 6.65656 35115 ft 437 kts 124°
2026-04-24 21:51 43.83679 6.72570 35108 ft 437 kts 124°
2026-04-24 21:51 43.80208 6.79475 35117 ft 437 kts 124°
2026-04-24 21:52 43.76731 6.86372 35127 ft 437 kts 124°
2026-04-24 21:52 43.73247 6.93255 35143 ft 436 kts 124°
2026-04-24 21:53 43.69433 6.99771 35156 ft 437 kts 130°
2026-04-24 21:53 43.65480 7.06102 35167 ft 437 kts 130°
2026-04-24 21:54 43.61516 7.12439 35172 ft 436 kts 130°
2026-04-24 21:54 43.57551 7.18776 35154 ft 436 kts 130°
2026-04-24 21:55 43.54087 7.25572 35135 ft 433 kts 115°
2026-04-24 21:55 43.51601 7.33135 35115 ft 433 kts 113°
2026-04-24 21:56 43.49110 7.40687 35094 ft 433 kts 114°
2026-04-24 21:56 43.46612 7.48230 35086 ft 433 kts 113°
2026-04-24 21:57 43.44122 7.55768 35085 ft 433 kts 114°
2026-04-24 21:57 43.42873 7.59539 35275 ft 433 kts 114°
2026-04-24 21:57 43.41640 7.63247 35132 ft 437 kts 113°
2026-04-24 21:57 43.40376 7.67042 34982 ft 439 kts 113°
2026-04-24 21:58 43.39116 7.70823 34390 ft 441 kts 113°
2026-04-24 21:58 43.37841 7.74639 33816 ft 439 kts 113°
2026-04-24 21:58 43.36567 7.78442 33243 ft 435 kts 113°
2026-04-24 21:58 43.35309 7.82198 32705 ft 431 kts 113°
2026-04-24 21:59 43.34058 7.85921 32151 ft 428 kts 113°
2026-04-24 21:59 43.32821 7.89606 31631 ft 425 kts 113°
2026-04-24 21:59 43.31589 7.93280 31098 ft 422 kts 113°
2026-04-24 21:59 43.30364 7.96925 30577 ft 419 kts 113°
2026-04-24 22:00 43.29144 8.00549 30024 ft 417 kts 113°
2026-04-24 22:00 43.27934 8.04133 29497 ft 413 kts 113°
2026-04-24 22:00 43.26727 8.07694 28998 ft 408 kts 113°
2026-04-24 22:00 43.25539 8.11196 28507 ft 403 kts 113°
2026-04-24 22:01 43.24367 8.14655 28016 ft 399 kts 113°
2026-04-24 22:01 43.23206 8.18086 27553 ft 394 kts 113°
2026-04-24 22:01 43.22054 8.21479 27093 ft 390 kts 113°
2026-04-24 22:01 43.20914 8.24833 26655 ft 386 kts 113°
2026-04-24 22:02 43.19789 8.28142 26221 ft 381 kts 113°
2026-04-24 22:02 43.18673 8.31417 25784 ft 378 kts 113°
2026-04-24 22:02 43.17563 8.34664 25354 ft 374 kts 113°
2026-04-24 22:02 43.16471 8.37857 24921 ft 372 kts 113°
2026-04-24 22:03 43.15376 8.41063 24478 ft 370 kts 112°
2026-04-24 22:03 43.14479 8.44337 24033 ft 365 kts 103°
2026-04-24 22:03 43.13961 8.47751 23514 ft 369 kts 98°
2026-04-24 22:03 43.13488 8.51205 22994 ft 369 kts 98°
2026-04-24 22:04 43.13015 8.54635 22495 ft 367 kts 98°
2026-04-24 22:04 43.12543 8.58039 22020 ft 365 kts 98°
2026-04-24 22:04 43.12067 8.61449 21533 ft 363 kts 98°
2026-04-24 22:04 43.11591 8.64840 21048 ft 362 kts 99°
2026-04-24 22:05 43.11116 8.68212 20579 ft 360 kts 99°
2026-04-24 22:05 43.10641 8.71567 20088 ft 359 kts 99°
2026-04-24 22:05 43.10165 8.74920 19608 ft 359 kts 98°
2026-04-24 22:05 43.09686 8.78264 19136 ft 358 kts 99°
2026-04-24 22:06 43.09209 8.81589 18664 ft 358 kts 99°
2026-04-24 22:06 43.08734 8.84921 18158 ft 357 kts 98°
2026-04-24 22:06 43.08261 8.88248 17665 ft 356 kts 98°
2026-04-24 22:06 43.07792 8.91545 17196 ft 353 kts 98°
2026-04-24 22:07 43.07325 8.94831 16741 ft 351 kts 98°
2026-04-24 22:07 43.06860 8.98096 16265 ft 349 kts 98°
2026-04-24 22:07 43.06394 9.01349 15799 ft 348 kts 98°
2026-04-24 22:07 43.05936 9.04540 15370 ft 345 kts 98°
2026-04-24 22:08 43.05469 9.07747 14925 ft 343 kts 100°
2026-04-24 22:08 43.04780 9.10861 14510 ft 342 kts 105°
2026-04-24 22:08 43.04039 9.13935 14123 ft 338 kts 105°
2026-04-24 22:08 43.03309 9.16973 13696 ft 335 kts 105°
2026-04-24 22:09 43.02584 9.19995 13214 ft 334 kts 105°
2026-04-24 22:09 43.01865 9.22991 12742 ft 332 kts 105°
2026-04-24 22:09 43.01145 9.25980 12282 ft 329 kts 105°
2026-04-24 22:09 43.00432 9.28939 11844 ft 327 kts 105°
2026-04-24 22:10 42.99733 9.31841 11410 ft 324 kts 105°
2026-04-24 22:10 42.99030 9.34760 10940 ft 323 kts 105°
2026-04-24 22:10 42.98322 9.37693 10530 ft 321 kts 105°
2026-04-24 22:10 42.97628 9.40545 10339 ft 310 kts 105°
2026-04-24 22:11 42.96966 9.43243 10159 ft 291 kts 105°
2026-04-24 22:11 42.96333 9.45823 9595 ft 284 kts 105°
2026-04-24 22:11 42.95724 9.48326 8990 ft 279 kts 105°
2026-04-24 22:11 42.95118 9.50816 8379 ft 274 kts 105°
2026-04-24 22:12 42.94524 9.53252 7893 ft 265 kts 105°
2026-04-24 22:12 42.93954 9.55566 7755 ft 243 kts 105°
2026-04-24 22:12 42.93249 9.57600 7393 ft 237 kts 125°
2026-04-24 22:12 42.91974 9.58974 7233 ft 239 kts 152°
2026-04-24 22:13 42.90337 9.59411 7110 ft 251 kts 179°
2026-04-24 22:13 42.88611 9.58918 6845 ft 255 kts 190°
2026-04-24 22:13 42.86895 9.58283 6428 ft 258 kts 191°
2026-04-24 22:13 42.85172 9.57633 6108 ft 255 kts 192°
2026-04-24 22:14 42.83529 9.56660 5680 ft 260 kts 204°
2026-04-24 22:14 42.81914 9.55550 5336 ft 259 kts 204°
2026-04-24 22:14 42.80308 9.54462 5015 ft 256 kts 205°
2026-04-24 22:14 42.78719 9.53396 4721 ft 254 kts 204°
2026-04-24 22:15 42.77162 9.52353 4335 ft 244 kts 204°
2026-04-24 22:15 42.75679 9.51359 4017 ft 232 kts 205°
2026-04-24 22:15 42.74268 9.50414 3723 ft 222 kts 205°
2026-04-24 22:15 42.72909 9.49504 3457 ft 211 kts 205°
2026-04-24 22:16 42.71645 9.48656 3180 ft 197 kts 206°
2026-04-24 22:16 42.70459 9.47860 2921 ft 183 kts 206°
2026-04-24 22:16 42.69368 9.47128 2683 ft 171 kts 206°
2026-04-24 22:16 42.68270 9.46587 2473 ft 161 kts 188°
2026-04-24 22:17 42.67195 9.46577 2262 ft 153 kts 176°
2026-04-24 22:17 42.66129 9.46655 2045 ft 151 kts 177°
2026-04-24 22:17 42.65103 9.46516 1786 ft 149 kts 193°
2026-04-24 22:17 42.64089 9.46149 1662 ft 147 kts 197°
2026-04-24 22:18 42.63117 9.45812 1561 ft 143 kts 192°
2026-04-24 22:18 42.62127 9.45685 1290 ft 142 kts 178°
2026-04-24 22:18 42.61155 9.45864 998 ft 140 kts 167°
2026-04-24 22:18 42.60228 9.46278 852 ft 140 kts 160°
2026-04-24 22:19 42.59276 9.46732 650 ft 146 kts 165°
2026-04-24 22:19 42.58312 9.47121 501 ft 142 kts 165°
2026-04-24 22:19 42.57377 9.47496 293 ft 138 kts 166°
2026-04-24 22:19 42.56470 9.47871 86 ft 135 kts 164°
2026-04-24 22:20 42.55608 9.48225 32 ft 116 kts 163°
2026-04-24 22:20 42.55120 9.48432 36 ft 30 kts 162°
2026-04-24 22:20 42.54993 9.48439 34 ft 19 kts 230°
2026-04-24 22:20 42.54975 9.48361 35 ft 3 kts 253°
2026-04-24 22:21 42.54970 9.48342 35 ft 2 kts 251°
2026-04-24 22:21 42.54967 9.48332 35 ft 1 kts 250°
2026-04-24 22:21 42.54967 9.48329 34 ft 0 kts 250°
2026-04-24 22:21 42.54961 9.48308 35 ft 4 kts 250°
2026-04-24 22:22 42.54961 9.48307 35 ft 0 kts 250°
2026-04-24 22:22 42.54957 9.48292 35 ft 4 kts 250°
2026-04-24 22:22 42.54931 9.48244 35 ft 8 kts 203°
2026-04-24 22:23 42.54862 9.48265 35 ft 11 kts 162°
2026-04-24 22:23 42.54802 9.48291 35 ft 4 kts 162°
2026-04-24 22:23 42.54779 9.48296 35 ft 2 kts 187°
2026-04-24 22:23 42.54766 9.48288 35 ft 2 kts 202°
2026-04-24 22:24 42.54749 9.48276 35 ft 4 kts 217°
2026-04-24 22:24 42.54731 9.48220 35 ft 9 kts 254°
2026-04-24 22:24 42.54727 9.48204 35 ft 0 kts 255°